Location: Newark
(49.3500°N, 0.2500°E)
Time: 03:50:40
(UTC+00:00)

ISS - Visible Passes

Search period start: 22 September 2019 00:00
Search period end: 02 October 2019 00:00
Orbit: 411 x 421 km, 51.6° (Epoch: 22 September)

Date Brightness Start Highest point End Pass type
(mag) Time Alt. Az. Time Alt. Az. Time Alt. Az.
22 Sep -3.6 19:22:34 10° SW 19:25:49 53° SSE 19:26:55 34° E visible
22 Sep -0.8 20:59:16 10° W 20:59:49 14° W 20:59:49 14° W visible
23 Sep -3.0 18:34:19 10° SW 18:37:24 36° SSE 18:40:30 10° E visible
23 Sep -3.0 20:10:42 10° W 20:13:25 53° WNW 20:13:25 53° WNW visible
24 Sep -3.8 19:22:10 10° WSW 19:25:30 86° NNW 19:26:54 32° ENE visible
24 Sep -0.7 20:59:09 10° WNW 20:59:48 15° WNW 20:59:48 15° WNW visible
25 Sep -3.8 18:33:41 10° WSW 18:37:00 72° SSE 18:40:18 10° ENE visible
25 Sep -2.7 20:10:34 10° W 20:13:12 45° NW 20:13:12 45° NW visible
26 Sep -3.4 19:21:58 10° W 19:25:16 61° N 19:26:33 33° ENE visible
26 Sep -0.6 20:58:55 10° WNW 20:59:26 14° WNW 20:59:26 14° WNW visible
27 Sep -3.6 18:33:22 10° W 18:36:42 71° NNW 18:39:51 11° ENE visible
27 Sep -2.5 20:10:21 10° WNW 20:12:44 40° NW 20:12:44 40° NW visible
28 Sep -3.4 19:21:46 10° WNW 19:25:03 55° N 19:26:00 38° ENE visible
28 Sep -0.4 20:58:35 10° WNW 20:58:53 12° WNW 20:58:53 12° WNW visible
29 Sep -3.3 18:33:08 10° W 18:36:25 56° N 18:39:15 13° ENE visible
29 Sep -2.2 20:10:01 10° WNW 20:12:08 36° WNW 20:12:08 36° WNW visible
30 Sep -3.6 19:21:27 10° WNW 19:24:46 65° N 19:25:23 50° ENE visible
30 Sep -0.3 20:58:16 10° WNW 20:58:16 10° WNW 20:58:16 10° WNW visible
01 Oct -3.4 18:32:51 10° WNW 18:36:07 57° N 18:38:38 16° E visible
01 Oct -1.9 20:09:38 10° WNW 20:11:31 30° W 20:11:31 30° W visible
